Location: Hylvaty SDH
(49.9612°N, 16.4057°E)
Time: 03:35:02
(UTC+01:00)

Vanguard 3 - Visible Passes

Search period start: 25 January 2020 00:00
Search period end: 04 February 2020 00:00
Orbit: 507 x 3263 km, 33.4° (Epoch: 24 January)

Date Brightness Start Highest point End Pass type
(mag) Time Alt. Az. Time Alt. Az. Time Alt. Az.
25 Jan 10.8 16:58:41 10° SW 17:15:19 36° SSE 17:29:36 10° ESE visible
25 Jan 10.1 19:11:58 10° WSW 19:29:25 43° S 19:36:28 29° SE visible
25 Jan 10.2 21:28:05 10° W 21:41:01 33° SW 21:41:01 33° SW visible
26 Jan 10.5 17:55:58 10° SW 18:13:39 42° S 18:26:38 14° ESE visible
26 Jan 10.0 20:10:51 10° WSW 20:27:34 40° SSW 20:31:12 36° SSE visible
26 Jan 10.7 22:28:16 10° W 22:35:46 21° WSW 22:35:46 21° WSW visible
27 Jan 10.9 16:40:53 10° SW 16:57:46 38° SSE 17:13:01 10° ESE visible
27 Jan 10.3 18:54:12 10° WSW 19:12:04 44° S 19:21:24 24° SE visible
27 Jan 10.2 21:10:19 10° W 21:25:17 33° SSW 21:25:58 33° SSW visible
28 Jan 10.6 17:38:18 10° SW 17:56:09 44° S 18:11:20 10° ESE visible
28 Jan 10.1 19:53:07 10° WSW 20:10:16 41° SSW 20:16:11 31° SSE visible
28 Jan 10.6 22:10:41 10° W 22:20:46 23° SW 22:20:46 23° SW visible
29 Jan 10.5 18:36:35 10° WSW 18:54:37 45° S 19:06:26 18° SE visible
29 Jan 10.3 20:52:38 10° W 21:08:00 33° SSW 21:11:01 31° S visible
29 Jan 11.1 23:13:50 10° WSW 23:15:35 11° WSW 23:15:35 11° WSW visible
30 Jan 10.7 17:20:49 10° WSW 17:38:35 45° S 17:54:36 10° ESE visible
30 Jan 10.3 19:35:29 10° WSW 19:52:51 41° SSW 20:01:18 25° SSE visible
30 Jan 10.7 21:53:10 10° W 22:05:06 22° SW 22:05:53 22° SW visible
31 Jan 10.6 18:19:06 10° WSW 18:37:05 45° S 18:51:38 12° SE visible
31 Jan 10.4 20:35:02 10° W 20:50:35 32° SSW 20:56:13 26° S visible
31 Jan 11.1 22:57:19 10° WSW 23:00:48 11° WSW 23:00:48 11° WSW visible
01 Feb 10.8 17:03:31 10° WSW 17:20:58 46° S 17:37:43 10° ESE visible
01 Feb 10.6 19:17:59 10° W 19:35:20 40° SSW 19:46:35 18° SE visible
01 Feb 10.7 21:35:46 10° W 21:47:42 21° SW 21:51:11 20° SSW visible
02 Feb 10.7 18:01:47 10° WSW 18:19:28 45° S 18:35:31 10° SE visible
02 Feb 10.6 20:17:35 10° W 20:33:05 31° SSW 20:41:38 20° S visible
02 Feb 11.2 22:41:47 10° WSW 22:44:12 10° SW 22:46:13 10° SW visible
03 Feb 10.8 19:00:39 10° W 19:17:44 39° SSW 19:32:09 11° SE visible
03 Feb 10.9 21:18:33 10° W 21:30:12 20° SW 21:36:45 15° SSW visible
